Regional Weather Roundup
Issued by NWS

Home | Current Version | Previous Version | Text Only | Print | Product List | Glossary Off
Versions: 1 2 3 4 5 6 7 8 9 10 11 12 13 14 15 16 17 18 19 20 21 22 23 24 25 26 27 28 29 30 31 32 33 34 35 36 37 38 39 40 41 42 43 44 45 46 47 48 49 50

000
ASUS45 KBOI 030710
RWRID
WEATHER ROUNDUP FOR IDAHO
NATIONAL WEATHER SERVICE BOISE ID
1200 AM MST TUE MAR 03 2015

NOTE: "FAIR" INDICATES FEW OR NO CLOUDS BELOW 12000 FEET
WITH NO SIGNIFICANT WEATHER AND/OR OBSTRUCTIONS TO VISIBILITY

IDZ012-014-030800-
SOUTHWEST IDAHO


CITY           SKY/WX    TMP DP  RH WIND       PRES   REMARKS
BOISE          CLOUDY    35  24  64 W10       29.84R WCI  27
CALDWELL       CLOUDY    37  19  48 W16       29.89R WCI  28
MOUNTAIN HOME  CLOUDY    36  25  66 NW20      29.82R WCI  25
$$

IDZ016-017-030800-
SOUTHCENTRAL IDAHO


CITY           SKY/WX    TMP DP  RH WIND       PRES   REMARKS
BURLEY         CLOUDY    34  19  54 W17       29.72S WCI  23
JEROME         MOCLDY    33  20  58 SW23      29.74R WCI  21
TWIN FALLS     MOCLDY    36  21  54 W22G28    29.76R WCI  25
$$

IDZ019>023-030800-
SOUTHEAST IDAHO


CITY           SKY/WX    TMP DP  RH WIND       PRES   REMARKS
IDAHO FALLS    CLOUDY    33  21  61 SW9       29.67R WCI  25
POCATELLO      CLEAR     34  20  56 SW22      29.71R WCI  22
REXBURG        CLOUDY    30 N/A N/A NE7       29.67R WCI  23
$$

IDZ006-010-011-018-031-032-030800-
CENTRAL IDAHO MOUNTAINS


CITY           SKY/WX    TMP DP  RH WIND       PRES   REMARKS
MCCALL         MOCLDY    25  17  72 W7        29.78R WCI  17
HAILEY         CLOUDY    32  21  64 NW5       29.66S WCI  27
STANLEY          N/A     27  17  66 N6        29.70R WCI  20
SALMON         CLOUDY    30  19  64 N10       29.77R WCI  21
CHALLIS        LGT SNOW  29  24  82 N3        29.71R
$$

IDZ002-004-006-007-026-030800-
NORTHERN IDAHO


CITY           SKY/WX    TMP DP  RH WIND       PRES   REMARKS
LEWISTON       CLOUDY    35  33  92 W6        30.00R WCI  30
LOWELL           N/A     34  32  92 N6        29.98R WCI  29
COEUR D`ALENE  CLOUDY    28  16  59 N14       30.02S WCI  17
MULLAN PASS    CLOUDY    10   7  87 VRB3      29.84R
$$



USA.gov is the U.S. government's official web portal to all federal, state and local government web resources and services.